Showing default

M3MSAT, 41605

Orbit data source: Space-Track

M3MSAT, 41605 is a Canadian payload satellite in SSO that was launched on Wed, 22 Jun 2016 UTC via a PSLV-XL launch vehicle from the Sirharikota (SRI). Payloads include a variety of satellites, spacecraft, and rockets equipped with specific instruments for various scientific and technological missions. These include communications satellites like Starlink; space stations such as the ISS; scientific satellites like the Hubble; Earth observation satellites from companies like Planet Labs, Umbra, and HawkEye 360; GPS; miniature CubeSats for education and research; and military/defense satellites.

Loading next visibility...
M3MSAT details
Identifier
41605, 2016-040G
Orbit
SSO
Last TLE update20 hours ago
Origin
Flag of CADND/EXEA (CA)
ManufacturerHoneywell/ComDev
MissionOperational Defense Communications
Bus & MotorMMMS, Unknown motor
Mass85 kg wet, 85 kg dry
Launch date (UTC)
2016-06-22 (9 years ago)
Launch vehicle
PSLV-XL
Launch site
Sirharikota (SRI)
Object type
Payload
Rocket body
Debris
Shape & HBRBox, 0.8 m
Radar Cross Section0.800 m², Medium (>0.1 m² and < 1m²)

Expand to show TLE details & history

TLE from 20 hours ago
0 M3MSAT
1 41605U 16040G   24360.61356193  .00037307  00000-0  68824-3 0  9997
2 41605  97.1043  21.7620 0009162  88.4090 271.8211 15.48981607473518
Epoch: 2024-12-25T14:43Z
Definitive object data (Epoch: 2024-12-25T14:43:31.75Z)
Latitude-0.00005°
Longitude66.27492°
Altitude422.65 km
Speed7.658 km/s
True Right ascension01h 27m 02s
True Declination0° 00' 00"
Sunlit
Object was in daylight at TLE epoch
Visualization TLE readout
Latitude-45.14575°
Longitude74.24958°
Altitude441.096 km
Speed7.643 km/s
Apparent Right ascension23h 59m 32s
Apparent Declination-46° 25' 46"
Sunlit
Object is in daylight
Visualization observer readout
Local Sidereal Time10:02:18
Azimuth243.251° WSW
Elevation-67.803°
Doppler factor1
Orbital elements
Apogee altitude422.844 km
Perigee altitude410.393 km
Semi-major axis6,794.755 km
Eccentricity0.0009162
Inclination97.1043°
RAAN21.762°
Arg. of periapsis88.409°
True anomaly271.71616°
Mean anomaly271.8211°
Eccentric anomaly271.76863°
Mean motion3.8751 °/min
BSTAR0.00068824
Orbital period92.9 mins
Loading maneuver chart data...
Loading historical data...
Loading historical data...
Loading historical data...
Loading historical data...
Loading historical data...
Loading historical data...
Loading historical data...

M3MSAT Visibility forecast

Observer location: undefined°, undefined

Span
Click to sort rows by Start time (UTC) header in descending order
Start Az.
Max El. time (UTC)
Max El. Az.
Max El.
End time (UTC)
End Az.
5 mins2024-12-26 14:32:05.426Z10.001° NNE2024-12-26 14:35:05.426Z216.151° SW44.099°2024-12-26 14:37:05.426Z195.055° SSW
|